This demonstration page uses our WeatherBlox Daily Observations layout. Learn more.

Left ArrowRight Arrow

Hourly Observations for May 3, 2021

Temp ( °F °C ) Dew Point ( °F °C ) Humidity (%) Winds ( mph kmh ) Pressure ( in mb ) Visibility ( mi km ) Precip ( " mm )
12:53 am 00:53 Clear 63 17.2 36 2.2 37 37 N 8 13 29.97 1015 10 16 0.00 0.00
1:53 am 01:53 Clear 66 18.9 34 1.1 30 30 N 13 20 29.96 1015 10 16 0.00 0.00
2:53 am 02:53 Clear 63 17.2 36 2.2 37 37 N 12 19 29.97 1015 10 16 0.00 0.00
3:53 am 03:53 Clear 64 17.8 36 2.2 35 35 N 12 19 29.97 1015 10 16 0.00 0.00
4:53 am 04:53 Clear 62 16.7 36 2.2 38 38 NNW 13 20 29.98 1015 10 16 0.00 0.00
5:53 am 05:53 Clear 63 17.2 36 2.2 37 37 NNW 16 26 29.98 1015 10 16 0.00 0.00
6:53 am 06:53 Sunny 63 17.2 36 2.2 37 37 N 16 26 30.00 1016 10 16 0.00 0.00
7:53 am 07:53 Sunny 64 17.8 36 2.2 35 35 N 17 28 30.01 1016 10 16 0.00 0.00
8:53 am 08:53 Sunny 68 20 35 1.7 30 30 NNW 15 24 30.02 1017 10 16 0.00 0.00
9:53 am 09:53 Sunny 71 21.7 34 1.1 26 26 NNW 14 22 30.01 1016 10 16 0.00 0.00
10:53 am 10:53 Sunny 75 23.9 30 -1.1 19 19 N 18 30 30.01 1016 10 16 0.00 0.00
11:53 am 11:53 Sunny 76 24.4 30 -1.1 18 18 NNW 16 26 30.00 1016 10 16 0.00 0.00
12:53 pm 12:53 Sunny 80 26.7 32 0 17 17 N 9 15 29.96 1015 10 16 0.00 0.00
1:53 pm 13:53 Sunny 82 27.8 32 0 16 16 NNW 14 22 29.94 1014 10 16 0.00 0.00
2:53 pm 14:53 Sunny 85 29.4 32 0 15 15 NNE 18 30 29.92 1013 10 16 0.00 0.00
3:53 pm 15:53 Sunny 86 30 33 0.6 15 15 NNE 14 22 29.89 1012 10 16 0.00 0.00
4:53 pm 16:53 Sunny 87 30.6 33 0.6 14 14 N 17 28 29.88 1012 10 16 0.00 0.00
5:53 pm 17:53 Sunny 86 30 33 0.6 15 15 NNE 17 28 29.88 1012 10 16 0.00 0.00
6:53 pm 18:53 Sunny 85 29.4 33 0.6 15 15 NNE 15 24 29.87 1012 10 16 0.00 0.00
7:53 pm 19:53 Sunny 81 27.2 34 1.1 18 18 N 9 15 29.87 1012 10 16 0.00 0.00
8:53 pm 20:53 Clear 77 25 36 2.2 23 23 NNW 6 9 29.90 1012 10 16 0.00 0.00
9:53 pm 21:53 Clear 72 22.2 40 4.4 31 31 NNE 6 9 29.91 1013 10 16 0.00 0.00
10:53 pm 22:53 Clear 73 22.8 38 3.3 28 28 NNW 6 9 29.93 1014 10 16 0.00 0.00
11:53 pm 23:53 Clear 68 20 40 4.4 36 36 NE 5 7 29.95 1014 10 16 0.00 0.00

Powered by AerisWeather